小惑星A/2024 U2

A/2024 U2

English version
Home page
Updated on January 2, 2025

---------------------------------------------------------------------

・ プロフィール

発見日 2024年10月26日
発見光度 22.19等
発見者 Kitt Peak-Bok

・ 軌道要素

Epoch 2025 Dec. 31.0 TT = JDT 2461040.5                                         
T 2026 Jan. 17.81421 TT                                 Veres                   
q   8.1723115            (2000.0)            P               Q                  
z  -0.0000112      Peri.   29.97295     +0.69473044     +0.08726910             
 +/-0.0000000      Node    56.06726     +0.35806856     -0.90283420             
e   1.0000916      Incl.  120.62653     +0.62380808     +0.42103981             
H   12.1                                                                        
From 67 observations 2024 Oct. 26-Dec. 29, mean residual 0".3.                  

・ 光度変化

        H = 12.1  G = 0.15

---------------------------------------------------------------------

軌道要素はM.P.E.C. 2024-Y244に掲載されたものです。
光度グラフはComet for Windowsで作成したものです。

---------------------------------------------------------------------

Copyright(C) Seiichi Yoshida (comet@aerith.net). All rights reserved.